Content
SEND FEEDBACK

Daily
Averages
Monthly
Summary
United States of America

GRAND MARAIS, MINNESOTA


Home > North America > United States > Minnesota
Elevation: 554 meters     Latitude: 48 05N     Longitude: 090 46W

WEATHER
 
SELECT A DAY
Number of Records: 138,236;   Date Range: 7/30/98 - 12/17/14
 
SHARE

PRINT THIS DATA

[ ← Previous Day ]
WEATHER ALMANAC - 15 AUGUST, 2014
[ Next Day → ]
[ °F ]   °C
Weather ElementAverageHighLow
Temperature16.7 °C21.7 °C (4:56 pm)10.6 °C (2:56 am)
Dewpoint14 °C18.3 °C (3:56 pm)8.9 °C (10:56 am)
Humidity84.3 %93 % (12:56 am)73 % (1:56 pm)
Barometer1011.9 hPa1015.6 hPa (4:56 pm)1006.8 hPa (11:56 pm)
Wind Speed4.8 km/h11.1 km/h (10:56 am)
Weather ElementAverage
Wind DirectionSE (132.5 °)

Weather ElementTotal
Precipitation1.02 mm
Heating Degree Days2.2 (Base 18.3)
Growing Degree Days6.2 (Base 10)
Averaged from 24 records on 15 August, 2014
WEATHER CONDITIONS BREAKOUT
WIND DIRECTION BREAKOUT
WEATHER BY HOUR - 15 AUGUST, 2014
[ °F ]   °C
Local TimeTemperatureDewpointHumidityBarometerVisibilityWind DirectionWind SpeedGust SpeedPrecipitationEventsConditions
12:56 AM11.7 °C9.4 °C86 %1015.6 hPaCalm
1:56 AM11.7 °C9.4 °C86 %1015.6 hPaCalm
2:56 AM10.6 °C9.4 °C92 %1015.2 hPaCalm
3:56 AM10.6 °C9.4 °C92 %1015.2 hPaCalm
4:56 AM10.6 °C8.9 °C89 %1014.6 hPaCalm
5:56 AM10.6 °C9.4 °C92 %1014.9 hPaCalm
6:56 AM12.2 °C10.6 °C90 %1014.9 hPaCalm
7:56 AM16.7 °C13.3 °C80 %1014.6 hPaCalm
8:56 AM17.8 °C13.3 °C75 %1014.2 hPaWSW (250°)7.4 km/h
9:56 AM17.8 °C13.9 °C78 %1013.9 hPaWSW (240°)9.3 km/h
10:56 AM18.3 °C13.9 °C75 %1013.2 hPaWSW (250°)9.3 km/h
11:56 AM18.9 °C15 °C78 %1012.9 hPaWSW (250°)9.3 km/h
12:56 PM20 °C16.1 °C78 %1012.2 hPaWSW (250°)11.1 km/h
1:56 PM20 °C16.1 °C78 %1011.5 hPaWSW (250°)11.1 km/h
2:56 PM20 °C16.1 °C78 %1011.2 hPaWSW (250°)7.4 km/h
3:56 PM21.7 °C16.7 °C73 %1010.5 hPaWest (260°)9.3 km/h
4:56 PM20 °C16.7 °C81 %1009.8 hPaWSW (240°)9.3 km/h
5:56 PM18.9 °C16.1 °C84 %1009.5 hPaSW (230°)9.3 km/h
6:56 PM18.9 °C16.7 °C87 %1008.8 hPaCalm
7:56 PM19.4 °C17.2 °C87 %1007.8 hPaWSW (250°)5.6 km/h
8:56 PM19.4 °C17.2 °C87 %1007.5 hPaCalm
9:56 PM18.3 °C16.7 °C90 %1007.1 hPaCalm
10:56 PM17.8 °C16.7 °C93 %1007.1 hPaWSW (240°)7.4 km/h
11:56 PM19.4 °C18.3 °C93 %1006.8 hPaSW (220°)9.3 km/h1.02 mm
Hourly data recorded from KGNA, located 0 kilometers away from Grand Marais, Minnesota







STORIES FROM OUR PARTNERS